• In Moldova, Republic
  • List of Countries
  • For 7 days
  • Water Temperature
  • Satellite Maps
  • Weather Map
  • Weather Widgets
  • user-avatar
    Login

    Hourly Weather Tibissa

    Today, 29 May, Monday

    Time Temperature Precipitation Wind Pressure Humidity
    00:00 +18°C° 0 mm 3 mps 686 mmHg 52%
    01:00 +17°C° 0 mm 2 mps 686 mmHg 56%
    02:00 +17°C° 0 mm 2 mps 685 mmHg 59%
    03:00 +16°C° 0 mm 2 mps 685 mmHg 61%
    04:00 +16°C° 0 mm 1 mps 685 mmHg 63%
    05:00 +18°C° 0 mm 1 mps 685 mmHg 60%
    06:00 +17°C° 0 mm 2 mps 685 mmHg 58%
    07:00 +18°C° 0 mm 2 mps 685 mmHg 55%
    08:00 +20°C° 0 mm 2 mps 686 mmHg 48%
    09:00 +23°C° 0 mm 2 mps 686 mmHg 42%
    10:00 +25°C° 0 mm 2 mps 686 mmHg 35%
    11:00 +26°C° 0 mm 2 mps 686 mmHg 32%
    12:00 +28°C° 0 mm 3 mps 686 mmHg 29%
    13:00 +29°C° 0 mm 3 mps 686 mmHg 26%
    14:00 +29°C° 0 mm 3 mps 686 mmHg 26%
    15:00 +29°C° 0 mm 3 mps 686 mmHg 26%
    16:00 +29°C° 0 mm 4 mps 686 mmHg 25%
    17:00 +27°C° 0 mm 4 mps 685 mmHg 29%
    18:00 +26°C° 0 mm 5 mps 685 mmHg 32%
    19:00 +25°C° 0 mm 5 mps 685 mmHg 35%
    20:00 +22°C° 0 mm 5 mps 685 mmHg 40%
    21:00 +20°C° 0 mm 5 mps 685 mmHg 44%
    22:00 +19°C° 0 mm 4 mps 685 mmHg 48%
    23:00 +18°C° 0 mm 4 mps 685 mmHg 51%

    Tomorrow, 30 May, Tuesday

    Time Temperature Precipitation Wind Pressure Humidity
    00:00 +17°C° 0 mm 3 mps 685 mmHg 53%
    01:00 +17°C° 0 mm 3 mps 685 mmHg 56%
    02:00 +16°C° 0 mm 2 mps 685 mmHg 57%
    03:00 +16°C° 0 mm 2 mps 685 mmHg 58%
    04:00 +15°C° 0 mm 2 mps 684 mmHg 59%
    05:00 +16°C° 0 mm 2 mps 685 mmHg 56%
    06:00 +17°C° 0 mm 2 mps 685 mmHg 52%
    07:00 +18°C° 0 mm 2 mps 685 mmHg 49%
    08:00 +20°C° 0 mm 2 mps 686 mmHg 43%
    09:00 +23°C° 0 mm 2 mps 687 mmHg 37%
    10:00 +25°C° 0 mm 2 mps 687 mmHg 31%
    11:00 +26°C° 0 mm 2 mps 687 mmHg 30%
    12:00 +27°C° 0 mm 2 mps 688 mmHg 29%
    13:00 +28°C° 0 mm 3 mps 688 mmHg 27%
    14:00 +28°C° 0 mm 3 mps 687 mmHg 27%
    15:00 +28°C° 0 mm 3 mps 687 mmHg 28%
    16:00 +28°C° 0 mm 3 mps 687 mmHg 28%
    17:00 +27°C° 0.1 mm 3 mps 687 mmHg 32%
    18:00 +26°C° 0.1 mm 3 mps 687 mmHg 37%
    19:00 +24°C° 0.1 mm 3 mps 687 mmHg 41%
    20:00 +22°C° 0.1 mm 3 mps 687 mmHg 47%
    21:00 +21°C° 0.1 mm 3 mps 687 mmHg 52%
    22:00 +20°C° 0.1 mm 3 mps 688 mmHg 57%
    23:00 +20°C° 0 mm 3 mps 687 mmHg 60%

    Day after tomorrow, 31 May, Wednesday

    Time Temperature Precipitation Wind Pressure Humidity
    00:00 +19°C° 0 mm 2 mps 687 mmHg 62%
    01:00 +18°C° 0 mm 2 mps 687 mmHg 64%
    02:00 +18°C° 0 mm 2 mps 687 mmHg 66%
    03:00 +17°C° 0 mm 2 mps 687 mmHg 68%
    04:00 +17°C° 0 mm 2 mps 686 mmHg 70%
    05:00 +17°C° 0 mm 2 mps 687 mmHg 64%
    06:00 +18°C° 0 mm 2 mps 687 mmHg 58%
    07:00 +19°C° 0 mm 2 mps 688 mmHg 53%
    08:00 +21°C° 0 mm 2 mps 688 mmHg 44%
    09:00 +24°C° 0 mm 2 mps 688 mmHg 36%
    10:00 +26°C° 0 mm 3 mps 689 mmHg 28%
    11:00 +27°C° 0 mm 3 mps 689 mmHg 26%
    12:00 +28°C° 0 mm 3 mps 689 mmHg 24%
    13:00 +30°C° 0 mm 3 mps 689 mmHg 23%
    14:00 +30°C° 0 mm 3 mps 688 mmHg 23%
    15:00 +30°C° 0 mm 3 mps 688 mmHg 23%
    16:00 +30°C° 0 mm 3 mps 688 mmHg 23%
    17:00 +29°C° 0 mm 3 mps 688 mmHg 26%
    18:00 +28°C° 0 mm 4 mps 688 mmHg 29%
    19:00 +26°C° 0 mm 4 mps 688 mmHg 32%
    20:00 +25°C° 0 mm 3 mps 688 mmHg 37%
    21:00 +24°C° 0 mm 3 mps 688 mmHg 43%
    22:00 +21°C° 0 mm 2 mps 689 mmHg 48%
    23:00 +21°C° 0.1 mm 2 mps 688 mmHg 51%

    1 June, Thursday

    Time Temperature Precipitation Wind Pressure Humidity
    00:00 +20°C° 0.1 mm 2 mps 688 mmHg 54%
    01:00 +19°C° 0.1 mm 2 mps 688 mmHg 58%
    02:00 +20°C° 0 mm 1 mps 687 mmHg 59%
    03:00 +20°C° 0 mm 1 mps 687 mmHg 60%
    04:00 +19°C° 0 mm 1 mps 687 mmHg 61%
    05:00 +20°C° 0 mm 1 mps 687 mmHg 56%
    06:00 +21°C° 0 mm 1 mps 687 mmHg 51%
    07:00 +22°C° 0 mm 1 mps 688 mmHg 46%
    08:00 +24°C° 0 mm 2 mps 688 mmHg 39%
    09:00 +26°C° 0 mm 2 mps 689 mmHg 32%
    10:00 +28°C° 0 mm 2 mps 690 mmHg 25%
    11:00 +30°C° 0 mm 3 mps 690 mmHg 23%
    12:00 +31°C° 0 mm 3 mps 690 mmHg 22%
    13:00 +33°C° 0 mm 3 mps 690 mmHg 20%
    14:00 +33°C° 0 mm 3 mps 689 mmHg 20%
    15:00 +33°C° 0 mm 3 mps 689 mmHg 20%
    16:00 +31°C° 0 mm 3 mps 689 mmHg 20%
    17:00 +30°C° 0 mm 3 mps 689 mmHg 23%
    18:00 +30°C° 0 mm 3 mps 689 mmHg 25%
    19:00 +29°C° 0 mm 3 mps 689 mmHg 28%
    20:00 +27°C° 0 mm 2 mps 689 mmHg 32%
    21:00 +26°C° 0 mm 2 mps 689 mmHg 37%
    22:00 +24°C° 0 mm 2 mps 689 mmHg 41%
    23:00 +24°C° 0 mm 1 mps 689 mmHg 44%

    2 June, Friday

    Time Temperature Precipitation Wind Pressure Humidity
    00:00 +23°C° 0 mm 1 mps 688 mmHg 47%
    01:00 +23°C° 0 mm 1 mps 688 mmHg 50%
    02:00 +22°C° 0 mm 1 mps 688 mmHg 51%
    03:00 +22°C° 0 mm 1 mps 687 mmHg 53%
    04:00 +21°C° 0 mm 1 mps 687 mmHg 54%
    05:00 +22°C° 0 mm 1 mps 687 mmHg 51%
    06:00 +23°C° 0 mm 1 mps 688 mmHg 48%
    07:00 +24°C° 0 mm 1 mps 688 mmHg 44%
    08:00 +26°C° 0 mm 1 mps 688 mmHg 39%
    09:00 +27°C° 0 mm 1 mps 689 mmHg 33%
    10:00 +29°C° 0 mm 2 mps 689 mmHg 27%
    11:00 +30°C° 0 mm 2 mps 689 mmHg 27%
    12:00 +30°C° 0 mm 3 mps 689 mmHg 27%
    13:00 +31°C° 0 mm 3 mps 688 mmHg 26%
    14:00 +30°C° 0 mm 4 mps 688 mmHg 28%
    15:00 +29°C° 0 mm 4 mps 688 mmHg 29%
    16:00 +29°C° 0 mm 4 mps 687 mmHg 31%
    17:00 +28°C° 0.1 mm 3 mps 687 mmHg 33%
    18:00 +27°C° 0.1 mm 3 mps 687 mmHg 35%
    19:00 +27°C° 0.1 mm 2 mps 687 mmHg 37%
    20:00 +26°C° 0 mm 2 mps 687 mmHg 40%
    21:00 +24°C° 0 mm 1 mps 687 mmHg 43%
    22:00 +23°C° 0 mm 1 mps 687 mmHg 46%
    23:00 +23°C° 0 mm 1 mps 687 mmHg 47%

    3 June, Saturday

    Time Temperature Precipitation Wind Pressure Humidity
    00:00 +22°C° 0 mm 1 mps 687 mmHg 48%
    01:00 +22°C° 0 mm 1 mps 686 mmHg 50%
    02:00 +21°C° 0 mm 1 mps 686 mmHg 51%
    03:00 +21°C° 0 mm 1 mps 686 mmHg 53%
    04:00 +20°C° 0 mm 1 mps 685 mmHg 54%
    05:00 +22°C° 0 mm 1 mps 686 mmHg 51%
    06:00 +23°C° 0 mm 1 mps 686 mmHg 48%
    07:00 +24°C° 0 mm 1 mps 686 mmHg 45%
    08:00 +26°C° 0 mm 1 mps 687 mmHg 40%
    09:00 +28°C° 0 mm 1 mps 687 mmHg 35%
    10:00 +30°C° 0 mm 1 mps 688 mmHg 30%
    11:00 +31°C° 0 mm 1 mps 687 mmHg 28%
    12:00 +31°C° 0 mm 1 mps 687 mmHg 26%
    13:00 +32°C° 0 mm 2 mps 687 mmHg 24%
    14:00 +31°C° 0 mm 2 mps 687 mmHg 25%
    15:00 +31°C° 0 mm 2 mps 686 mmHg 26%
    16:00 +30°C° 0 mm 2 mps 686 mmHg 27%
    17:00 +30°C° 0 mm 2 mps 686 mmHg 29%
    18:00 +29°C° 0 mm 2 mps 686 mmHg 30%
    19:00 +29°C° 0 mm 3 mps 686 mmHg 32%
    20:00 +27°C° 0 mm 3 mps 686 mmHg 33%
    21:00 +26°C° 0 mm 3 mps 686 mmHg 35%
    22:00 +25°C° 0 mm 3 mps 686 mmHg 37%
    23:00 +24°C° 0 mm 2 mps 686 mmHg 38%
    Show more